Temp
2 2 1 2 2 2 1 1 1 2 3 3 3 3 3 3 3 3 3 2 2 2 2 2 1 1 0 0 -1 0 -0 -1 -1 -2 -2 -1 -2 -1 -1 -1 -2 -1 -1 -1 -0 1 -0 -1 -0 -0 0 -0 0 0
2 1 1 2 2 1 1 1 1 2 2 3 3 3 3 3 3 3 3 2 2 2 2 2 2 2 1 1 0 0 -0 -0 -1 -1 -1 -1 -1 -2 -2 -1 -1 -2 -2 -2 -2 -1 -0 -0 -1 -0 -0 -0 -0 -0
1 2 2 2 2 1 1 0 1 2 2 3 3 3 3 3 3 3 3 2 2 2 2 2 2 2 1 1 0 -1 -1 -0 -0 -0 -2 -2 -1 -1 -2 -2 -1 -1 -1 -1 -1 -1 -1 -1 -1 -0 -0 -1 -1 -1
2 2 2 2 2 1 1 0 1 2 2 2 3 3 3 3 2 3 3 2 2 2 1 1 2 1 1 1 0 -1 -1 -1 -2 -2 -2 -2 -2 -2 -2 -2 -1 -2 -1 -1 -0 -0 -1 -1 -1 -1 -1 -1 -1 -1
3 2 2 2 1 1 0 1 1 2 2 2 2 3 3 3 2 3 3 2 2 2 1 0 2 2 2 1 0 -1 -1 -2 -2 -2 -2 -2 -2 -2 -2 -3 -2 -1 -1 -1 -1 -1 -1 -1 -1 -1 -1 -1 -2 -2
3 2 2 2 1 1 1 0 1 1 1 2 2 2 2 3 2 3 3 2 2 2 2 -0 1 1 1 1 -0 -1 -1 -2 -2 -2 -2 -2 -2 -3 -3 -3 -1 -2 -2 -2 -2 -1 -1 -1 -1 -1 -2 -2 -2 -2
3 2 2 2 1 1 1 0 1 1 1 1 2 2 2 2 2 2 2 2 2 3 2 1 0 1 1 0 -0 -1 -1 -2 -2 -2 -2 -2 -2 -3 -3 -3 -3 -3 -3 -2 -2 -2 -2 -1 -1 -1 -2 -3 -3 -3
2 2 1 1 1 0 1 0 1 1 1 1 2 2 2 2 2 2 2 2 2 2 2 1 0 1 0 -0 -1 -1 -1 -2 -2 -2 -2 -2 -3 -3 -3 -2 -3 -3 -3 -3 -2 -3 -3 -2 -2 -2 -2 -3 -3 -3
2 2 1 1 1 1 0 -0 1 1 1 1 1 2 2 2 2 2 2 2 2 2 2 1 1 1 0 -0 -0 -0 -1 -1 -2 -2 -2 -3 -3 -2 -2 -2 -3 -3 -3 -3 -3 -3 -3 -3 -3 -3 -3 -3 -4 -4
2 2 1 1 1 1 -0 -1 1 1 1 1 1 2 2 1 1 1 2 2 2 2 2 1 1 0 -0 -0 -0 -0 -1 -1 -2 -2 -3 -3 -2 -2 -2 -2 -2 -3 -3 -4 -3 -3 -3 -3 -4 -4 -4 -4 -4 -4
1 1 1 1 0 -0 -1 0 1 1 1 1 1 1 1 1 1 1 2 2 2 2 2 1 1 0 0 -0 -1 -1 -1 -1 -2 -3 -3 -3 -2 -3 -2 -2 -2 -2 -3 -3 -3 -3 -4 -4 -5 -5 -5 -6 -6 -4
1 1 -0 -1 -1 -1 -1 0 0 1 1 1 1 1 1 1 1 1 2 2 2 1 1 1 0 0 -0 -1 -1 -1 -2 -2 -3 -3 -3 -3 -2 -2 -2 -2 -3 -3 -3 -3 -3 -4 -4 -5 -5 -5 -5 -5 -6 -5
-0 -1 -1 -0 -0 -0 -0 0 0 1 1 1 1 1 1 1 1 1 2 2 2 1 1 1 0 -0 -0 -1 -1 -1 -2 -3 -3 -3 -3 -2 -3 -3 -3 -3 -3 -3 -3 -3 -3 -4 -4 -4 -5 -5 -5 -5 -5 -6
0 -0 -0 -0 -0 -0 -0 0 0 0 1 1 1 1 1 2 2 2 2 1 1 1 1 0 0 -0 -0 -1 -1 -1 -2 -2 -3 -4 -2 -2 -3 -3 -3 -3 -3 -3 -4 -4 -4 -4 -4 -4 -4 -5 -5 -5 -5 -5
-1 -0 -1 -1 -1 -0 -0 -0 0 0 0 1 1 1 2 2 2 2 2 1 1 1 1 0 -1 -0 -1 -1 -1 -2 -2 -3 -3 -2 -1 -2 -3 -3 -3 -4 -4 -4 -4 -4 -4 -5 -4 -5 -5 -5 -5 -5 -6 -6
-0 -1 -1 -1 -1 -0 -0 -0 0 0 0 0 2 2 2 2 1 1 1 1 1 1 0 -0 -0 -1 -1 -2 -3 -3 -2 -2 -1 -2 -3 -3 -3 -3 -4 -4 -4 -4 -5 -5 -5 -5 -5 -5 -5 -5 -5 -5 -5 -6
-1 -1 -1 -1 -1 -1 -1 -0 -0 -0 0 1 2 2 2 2 2 1 1 1 1 0 0 -0 -1 -1 -2 -2 -3 -3 -2 -2 -2 -3 -3 -3 -4 -4 -4 -4 -5 -5 -6 -6 -6 -6 -6 -6 -6 -6 -6 -6 -5 -6
-1 -1 -2 -1 -1 -1 -1 -0 -1 -0 1 1 1 1 1 1 1 1 1 1 1 1 1 0 -1 -2 -2 -2 -2 -3 -2 -2 -3 -3 -3 -4 -4 -4 -4 -4 -5 -5 -6 -6 -6 -7 -7 -7 -7 -6 -6 -6 -6 -6
-1 -1 -2 -1 -1 -1 -1 -0 -0 -0 1 1 1 1 1 1 1 1 1 1 1 0 0 -1 -1 -1 -2 -2 -3 -3 -3 -3 -3 -3 -4 -4 -4 -4 -5 -5 -6 -6 -6 -7 -7 -7 -7 -7 -7 -7 -7 -7 -7 -7
-2 -2 -2 -1 -1 -1 -1 -0 -0 -0 1 0 1 1 1 1 1 1 1 1 1 -0 -0 -0 -1 -1 -1 -3 -3 -3 -4 -4 -4 -4 -5 -5 -5 -4 -5 -6 -7 -7 -8 -7 -8 -7 -7 -7 -7 -6 -7 -7 -7 -7
-2 -2 -2 -1 -1 -1 -1 -1 -0 0 1 1 1 1 1 1 1 1 1 1 0 -0 -1 -1 -2 -1 -1 -2 -3 -3 -4 -4 -4 -5 -5 -6 -4 -5 -6 -7 -8 -9 -9 -8 -7 -7 -7 -7 -7 -7 -7 -7 -8 -8
-2 -2 -2 -1 -1 -1 -0 -0 -0 0 1 1 1 1 1 1 1 1 1 0 -0 -0 -1 -1 -1 -2 -2 -3 -3 -3 -4 -4 -3 -3 -3 -4 -5 -6 -7 -8 -8 -8 -7 -7 -6 -7 -7 -7 -8 -7 -8 -8 -8 -9
-2 -2 -2 -1 -1 -0 -0 0 0 0 1 1 2 2 2 2 1 1 0 -0 -0 -0 -1 -1 -1 -2 -2 -3 -3 -3 -3 -3 -3 -3 -4 -4 -5 -5 -7 -7 -7 -9 -8 -7 -7 -7 -8 -8 -8 -8 -9 -9 -9 -9
-2 -2 -1 -1 -1 -0 -0 0 1 1 1 2 2 1 2 1 1 1 -0 -1 -1 -1 -1 -1 -2 -2 -2 -2 -2 -2 -3 -3 -3 -3 -4 -4 -5 -5 -6 -8 -9 -7 -8 -8 -8 -8 -8 -8 -8 -9 -9 -9 -9 -9
-2 -1 -1 -1 -0 0 0 0 1 1 1 1 1 1 1 1 0 0 -1 -0 -1 -1 -1 -1 -2 -3 -3 -2 -2 -2 -2 -3 -3 -3 -4 -5 -5 -6 -7 -8 -8 -8 -9 -9 -9 -9 -8 -9 -9 -10 -10 -9 -10 -10
-1 -1 -1 -0 -1 -0 -1 -0 1 1 1 1 1 1 0 0 -0 -0 -1 -1 -1 -2 -1 -1 -1 -2 -2 -2 -2 -2 -3 -3 -3 -4 -4 -5 -6 -8 -8 -8 -9 -9 -9 -9 -9 -9 -9 -9 -9 -10 -10 -10 -10 -10
-1 -1 -0 -0 -0 0 0 0 1 1 1 1 1 1 -0 -0 -0 -0 -0 -1 -2 -2 -2 -1 -1 -1 -1 -2 -2 -3 -3 -4 -4 -4 -4 -5 -5 -6 -8 -8 -8 -7 -8 -9 -9 -10 -10 -9 -10 -10 -10 -10 -10 -11
-1 -0 0 0 0 1 1 1 1 1 1 1 1 1 1 0 -0 0 -0 -1 -1 -1 -1 -1 -2 -2 -2 -2 -2 -3 -3 -4 -4 -4 -4 -5 -5 -5 -5 -5 -6 -6 -6 -7 -9 -10 -10 -10 -10 -10 -10 -10 -10 -10
-0 -0 0 1 1 1 1 1 1 2 1 0 0 1 1 1 0 0 -0 -1 -1 -2 -2 -2 -2 -2 -2 -2 -3 -3 -3 -4 -4 -4 -5 -5 -5 -5 -5 -5 -5 -6 -6 -6 -7 -7 -7 -8 -8 -8 -9 -10 -10 -10
0 0 1 1 1 1 1 2 2 2 1 1 1 1 1 1 0 0 -0 -0 -1 -2 -2 -3 -2 -2 -3 -3 -3 -3 -3 -4 -5 -6 -7 -6 -5 -5 -5 -5 -5 -5 -6 -6 -6 -6 -6 -7 -7 -7 -8 -9 -10 -10
1 1 2 2 2 2 2 2 2 2 1 1 1 1 0 1 0 0 -0 -1 -1 -1 -2 -3 -3 -3 -3 -4 -4 -4 -3 -3 -4 -4 -4 -5 -5 -5 -5 -5 -5 -5 -6 -6 -6 -6 -7 -7 -7 -7 -7 -8 -8 -9
2 2 2 2 2 2 2 2 1 2 1 1 1 1 1 1 1 0 -0 -0 -1 -2 -2 -3 -3 -4 -4 -4 -4 -4 -4 -4 -3 -4 -4 -4 -4 -4 -5 -5 -5 -5 -5 -6 -6 -6 -6 -7 -7 -7 -7 -8 -8 -8
2 2 2 2 2 2 2 2 2 1 1 1 2 2 1 1 0 0 -0 -0 -1 -1 -2 -2 -2 -3 -3 -4 -4 -4 -3 -3 -3 -3 -4 -4 -4 -4 -4 -5 -5 -5 -5 -6 -6 -6 -6 -6 -7 -7 -7 -7 -8 -8
Height
3123 3121 3120 3120 3118 3117 3115 3114 3114 3113 3113 3113 3112 3112 3112 3111 3109 3109 3109 3108 3109 3108 3108 3108 3108 3108 3108 3108 3110 3108 3109 3108 3108 3109 3109 3108 3108 3108 3108 3109 3110 3112 3112 3112 3113 3113 3114 3109 3111 3116 3114 3114 3117 3118
3118 3118 3117 3115 3113 3112 3111 3109 3110 3110 3111 3110 3110 3110 3110 3109 3108 3108 3108 3107 3106 3107 3107 3106 3106 3106 3107 3107 3108 3107 3108 3107 3106 3107 3107 3106 3106 3106 3107 3108 3106 3109 3108 3108 3110 3110 3106 3106 3108 3109 3110 3112 3113 3114
3111 3111 3110 3109 3109 3107 3107 3106 3107 3107 3108 3108 3108 3108 3107 3107 3106 3106 3106 3104 3104 3104 3105 3104 3105 3105 3104 3104 3106 3109 3106 3105 3105 3105 3105 3106 3106 3105 3105 3104 3104 3104 3104 3103 3104 3104 3103 3104 3105 3105 3106 3107 3108 3109
3106 3105 3105 3104 3103 3103 3103 3103 3103 3104 3105 3105 3105 3105 3105 3105 3104 3104 3104 3103 3103 3103 3104 3103 3103 3102 3102 3102 3102 3103 3103 3103 3104 3104 3105 3105 3105 3103 3104 3102 3101 3102 3100 3100 3100 3100 3100 3100 3101 3102 3103 3104 3104 3104
3100 3099 3098 3098 3098 3099 3100 3100 3101 3101 3102 3102 3103 3103 3103 3103 3103 3102 3102 3101 3101 3103 3103 3101 3100 3100 3099 3100 3100 3100 3101 3101 3101 3101 3101 3101 3101 3099 3097 3096 3095 3094 3094 3094 3095 3095 3095 3096 3096 3097 3098 3099 3100 3100
3094 3093 3093 3093 3093 3093 3095 3096 3097 3099 3100 3100 3101 3101 3101 3100 3100 3100 3100 3100 3099 3098 3099 3101 3099 3099 3098 3098 3098 3098 3097 3097 3097 3096 3096 3094 3094 3094 3092 3088 3088 3088 3087 3087 3090 3089 3090 3091 3092 3092 3093 3094 3094 3094
3090 3089 3088 3087 3088 3088 3089 3091 3094 3096 3097 3098 3098 3098 3098 3098 3097 3098 3100 3099 3098 3097 3098 3099 3099 3098 3097 3097 3096 3095 3094 3094 3093 3092 3090 3090 3088 3087 3084 3081 3080 3080 3080 3081 3082 3084 3086 3087 3088 3088 3088 3089 3089 3089
3084 3083 3083 3082 3083 3083 3085 3089 3091 3093 3095 3096 3096 3097 3096 3095 3095 3096 3097 3097 3096 3097 3097 3098 3099 3097 3096 3095 3094 3092 3092 3090 3089 3088 3085 3085 3084 3082 3077 3075 3072 3070 3071 3074 3077 3079 3081 3082 3083 3084 3084 3084 3084 3083
3079 3079 3078 3078 3078 3079 3081 3086 3089 3090 3092 3094 3094 3094 3094 3093 3093 3094 3094 3094 3094 3098 3096 3096 3097 3099 3094 3093 3091 3090 3088 3086 3086 3085 3083 3082 3079 3077 3074 3069 3064 3063 3064 3066 3071 3073 3075 3077 3078 3078 3078 3078 3078 3079
3072 3073 3073 3075 3075 3076 3077 3082 3086 3089 3091 3092 3093 3093 3091 3091 3092 3092 3092 3093 3093 3093 3094 3094 3094 3094 3094 3091 3089 3088 3086 3084 3082 3081 3080 3078 3075 3074 3070 3067 3061 3060 3061 3064 3067 3068 3070 3072 3072 3072 3072 3072 3073 3073
3069 3070 3072 3072 3073 3075 3079 3083 3085 3089 3090 3091 3091 3090 3090 3089 3090 3089 3090 3091 3091 3092 3092 3092 3091 3091 3090 3089 3087 3085 3083 3081 3080 3079 3077 3074 3072 3071 3068 3065 3062 3059 3061 3064 3064 3064 3065 3066 3067 3067 3068 3067 3066 3066
3069 3070 3071 3074 3077 3079 3081 3082 3085 3087 3088 3089 3089 3087 3087 3087 3087 3087 3088 3089 3089 3089 3089 3089 3088 3087 3086 3085 3083 3081 3080 3079 3077 3075 3074 3070 3069 3067 3065 3063 3060 3059 3059 3059 3060 3060 3060 3061 3061 3061 3062 3061 3061 3059
3075 3075 3076 3077 3079 3080 3081 3082 3083 3085 3086 3087 3086 3085 3084 3085 3084 3084 3085 3086 3086 3086 3086 3085 3084 3084 3082 3082 3081 3079 3077 3076 3074 3072 3069 3067 3066 3064 3061 3059 3057 3056 3055 3054 3054 3053 3053 3053 3053 3052 3053 3052 3052 3052
3076 3078 3078 3078 3079 3080 3080 3081 3082 3084 3085 3084 3083 3083 3083 3081 3081 3082 3084 3084 3084 3083 3082 3081 3080 3080 3079 3078 3077 3076 3074 3072 3070 3068 3065 3065 3062 3060 3058 3055 3054 3052 3050 3049 3047 3046 3046 3045 3044 3043 3043 3044 3044 3044
3075 3076 3077 3077 3078 3078 3079 3080 3081 3081 3082 3082 3082 3080 3079 3080 3080 3081 3080 3081 3081 3080 3078 3076 3075 3075 3074 3073 3072 3073 3071 3069 3066 3065 3065 3061 3059 3056 3053 3051 3049 3047 3044 3042 3040 3038 3037 3036 3034 3034 3033 3032 3033 3034
3072 3073 3075 3076 3076 3077 3078 3078 3079 3079 3079 3080 3079 3078 3078 3079 3080 3079 3078 3078 3077 3076 3074 3072 3071 3069 3068 3068 3067 3068 3067 3066 3065 3062 3059 3055 3053 3051 3049 3046 3044 3041 3038 3036 3032 3030 3028 3026 3024 3022 3022 3021 3022 3024
3070 3070 3071 3074 3074 3075 3076 3077 3076 3076 3076 3075 3075 3075 3075 3076 3076 3075 3075 3076 3074 3071 3069 3066 3064 3064 3061 3059 3060 3061 3060 3062 3060 3057 3053 3051 3049 3046 3043 3040 3037 3034 3031 3028 3025 3022 3020 3018 3015 3013 3012 3012 3014 3016
3067 3068 3070 3072 3073 3073 3074 3074 3074 3073 3072 3072 3072 3073 3072 3072 3072 3072 3072 3071 3070 3067 3065 3063 3057 3052 3053 3051 3053 3056 3059 3058 3054 3051 3049 3047 3044 3041 3038 3035 3031 3028 3025 3024 3021 3018 3015 3012 3008 3004 3001 3002 3007 3009
3065 3067 3069 3070 3071 3072 3072 3072 3071 3070 3070 3069 3069 3069 3069 3069 3069 3069 3068 3066 3065 3062 3060 3055 3050 3049 3047 3048 3052 3056 3057 3053 3050 3048 3045 3043 3040 3037 3033 3030 3027 3024 3022 3020 3018 3015 3012 3008 3004 2996 2988 2992 2999 3003
3064 3066 3068 3069 3070 3070 3070 3070 3069 3068 3067 3068 3067 3067 3066 3066 3065 3065 3063 3061 3059 3057 3054 3051 3048 3049 3049 3050 3052 3054 3053 3050 3049 3047 3043 3039 3036 3033 3030 3028 3026 3023 3021 3018 3015 3012 3010 3006 3003 3000 2993 2994 3000 3004
3065 3066 3067 3067 3068 3068 3068 3067 3067 3066 3065 3065 3065 3064 3064 3062 3061 3060 3059 3057 3055 3053 3050 3048 3048 3049 3050 3050 3050 3050 3048 3047 3046 3044 3041 3038 3034 3032 3028 3026 3024 3024 3021 3018 3014 3010 3007 3004 3002 3002 3004 3003 3005 3008
3064 3065 3065 3065 3065 3065 3065 3064 3065 3064 3064 3063 3063 3062 3061 3059 3058 3057 3056 3053 3052 3050 3049 3049 3049 3049 3049 3049 3048 3047 3046 3044 3041 3038 3036 3035 3033 3030 3028 3027 3025 3023 3020 3017 3013 3007 3006 3005 3006 3007 3007 3007 3008 3010
3062 3063 3063 3063 3063 3062 3064 3062 3063 3062 3062 3062 3061 3059 3058 3056 3055 3054 3053 3050 3050 3049 3049 3049 3048 3047 3047 3047 3046 3045 3043 3041 3038 3037 3035 3034 3032 3030 3028 3027 3026 3024 3022 3019 3017 3013 3012 3012 3013 3013 3013 3014 3015 3014
3060 3061 3061 3061 3061 3061 3061 3060 3060 3060 3060 3059 3058 3057 3055 3054 3052 3051 3049 3048 3048 3048 3048 3047 3046 3045 3046 3045 3044 3043 3041 3040 3038 3036 3035 3033 3031 3030 3029 3027 3026 3025 3024 3022 3020 3019 3018 3017 3017 3018 3018 3018 3018 3017
3061 3061 3061 3060 3059 3059 3059 3059 3059 3059 3059 3058 3056 3054 3052 3051 3049 3048 3047 3047 3046 3047 3046 3045 3045 3046 3045 3045 3043 3042 3041 3039 3037 3036 3034 3033 3032 3031 3029 3028 3027 3026 3028 3027 3025 3023 3021 3020 3019 3019 3018 3019 3017 3015
3057 3058 3058 3057 3058 3058 3059 3059 3060 3059 3058 3056 3054 3052 3050 3048 3047 3046 3045 3045 3044 3045 3044 3044 3044 3044 3044 3044 3043 3042 3041 3039 3037 3035 3034 3033 3032 3032 3032 3032 3030 3027 3027 3028 3027 3025 3024 3023 3022 3020 3019 3017 3015 3014
3055 3055 3055 3056 3056 3057 3057 3058 3058 3058 3056 3055 3052 3049 3045 3040 3046 3046 3045 3044 3044 3043 3043 3044 3044 3044 3044 3043 3042 3041 3041 3039 3037 3036 3034 3033 3032 3031 3033 3033 3030 3029 3028 3027 3027 3026 3025 3024 3023 3021 3019 3018 3016 3014
3052 3052 3053 3055 3055 3055 3056 3056 3056 3056 3055 3053 3051 3049 3047 3046 3047 3046 3044 3043 3043 3043 3043 3043 3044 3044 3043 3043 3042 3041 3040 3039 3037 3036 3034 3033 3032 3032 3032 3031 3030 3030 3029 3027 3026 3026 3026 3025 3023 3022 3021 3019 3017 3015
3049 3051 3052 3052 3053 3053 3053 3054 3054 3053 3053 3051 3049 3048 3047 3046 3046 3045 3045 3043 3042 3042 3043 3044 3044 3044 3043 3042 3042 3041 3040 3039 3037 3036 3035 3034 3033 3034 3033 3032 3032 3031 3030 3029 3028 3026 3025 3024 3023 3022 3021 3020 3019 3018
3047 3048 3049 3050 3050 3051 3052 3052 3051 3051 3050 3048 3047 3046 3046 3046 3046 3045 3045 3044 3043 3043 3043 3043 3043 3043 3043 3042 3041 3041 3040 3039 3038 3038 3037 3036 3035 3034 3034 3034 3033 3033 3032 3031 3030 3029 3028 3026 3026 3024 3023 3022 3021 3021
3045 3046 3047 3048 3048 3049 3050 3049 3048 3047 3047 3046 3045 3044 3045 3045 3045 3044 3044 3044 3043 3043 3043 3043 3042 3042 3042 3042 3041 3040 3039 3039 3038 3037 3036 3036 3035 3035 3035 3035 3035 3034 3034 3033 3032 3031 3031 3029 3029 3027 3026 3025 3023 3021
3043 3045 3046 3047 3048 3049 3048 3047 3045 3044 3044 3043 3043 3043 3044 3044 3044 3044 3043 3043 3042 3042 3042 3042 3042 3041 3041 3041 3040 3039 3039 3038 3037 3037 3036 3035 3035 3035 3035 3035 3035 3035 3035 3034 3033 3032 3032 3031 3030 3029 3027 3026 3024 3022
3043 3044 3045 3046 3046 3046 3046 3045 3043 3042 3041 3041 3041 3041 3042 3043 3043 3043 3042 3041 3040 3039 3039 3039 3038 3038 3039 3039 3039 3038 3037 3037 3036 3036 3035 3035 3034 3035 3035 3034 3034 3035 3035 3034 3034 3033 3032 3031 3031 3029 3028 3027 3025 3023
Wind_Speed
23 22 14 19 15 13 15 14 12 10 7 6 6 6 5 5 3 3 3 2 2 1 2 2 1 1 3 5 2 2 1 1 1 2 2 3 3 6 5 9 6 8 6 8 9 8 9 10 13 10 12 10 11 13
21 14 17 22 16 14 13 11 10 9 7 6 6 7 6 5 3 3 3 2 2 3 4 4 3 2 2 1 0 1 2 2 4 2 3 2 2 3 5 3 11 7 9 6 8 6 9 7 9 10 11 11 9 10
21 21 20 18 16 13 12 10 9 9 7 6 5 6 6 5 3 3 3 3 2 3 4 3 4 4 4 3 2 2 2 3 3 4 3 3 3 3 4 7 9 13 12 14 10 9 14 14 11 9 9 9 8 9
21 21 17 16 14 12 10 11 10 9 7 7 5 6 6 5 4 3 3 2 0 1 3 6 6 6 5 4 4 4 2 2 4 2 1 3 3 6 6 8 11 11 14 16 18 18 14 15 13 12 11 10 10 10
20 18 15 14 14 13 12 12 9 9 7 6 5 6 6 5 4 4 3 1 1 1 4 6 6 4 6 4 5 6 6 5 7 9 10 12 12 13 14 14 20 18 19 21 17 15 15 15 12 12 11 11 10 11
17 16 15 14 13 13 13 13 10 10 8 5 4 5 6 5 5 4 2 1 4 4 4 2 2 2 3 4 5 7 9 12 13 15 14 18 14 11 13 18 20 18 19 18 14 15 14 13 11 11 11 10 12 12
16 14 14 14 14 15 10 16 12 11 9 5 5 6 6 4 4 4 3 3 3 1 5 5 2 2 2 3 6 10 12 14 15 17 22 19 14 13 20 25 15 15 17 18 18 15 15 13 11 11 11 11 10 11
15 15 14 14 16 12 13 17 13 11 9 5 5 6 6 4 5 5 5 3 1 4 6 3 3 4 5 6 7 9 11 13 14 15 17 14 13 13 13 19 21 14 27 25 18 13 14 12 11 10 11 11 11 12
18 18 16 14 14 10 19 15 12 12 9 6 5 6 6 5 5 4 5 4 4 4 4 3 1 3 5 8 10 10 9 8 11 11 11 9 11 5 16 19 19 10 14 21 20 17 15 12 12 11 13 13 13 13
17 15 12 11 14 17 22 17 11 10 7 6 6 7 5 4 8 5 3 4 5 7 5 1 3 7 8 9 9 8 7 7 6 9 9 10 11 9 13 16 12 9 16 17 15 15 13 12 13 15 17 17 18 17
3 4 8 10 15 15 16 10 9 8 7 6 7 8 7 9 7 4 4 4 5 5 6 4 5 9 10 11 10 6 6 6 4 7 5 6 7 7 15 16 11 4 11 14 12 12 11 11 14 15 16 18 17 18
2 9 13 18 13 11 10 9 9 7 6 7 8 9 11 8 4 4 5 4 3 4 5 5 9 11 13 12 6 6 6 4 5 7 5 5 8 11 17 17 11 6 6 8 10 12 11 16 16 17 18 17 18 19
10 11 9 5 6 8 8 8 7 7 6 7 7 7 3 4 6 5 6 5 3 5 8 9 11 12 10 5 7 7 4 6 7 5 5 6 10 16 19 15 11 12 14 15 16 17 18 20 21 21 21 20 21 20
0 7 8 7 8 8 7 7 7 7 6 6 5 5 4 4 5 6 7 6 5 10 12 12 10 12 13 9 6 4 7 5 4 5 5 6 15 16 16 15 11 14 17 19 20 20 22 24 27 27 26 25 24 23
6 4 6 8 9 8 8 7 7 7 7 5 4 4 4 4 6 11 11 9 11 12 18 14 13 13 10 7 5 5 4 5 5 6 8 14 18 17 16 15 17 19 17 17 20 21 23 26 30 31 32 29 27 25
10 9 8 9 9 7 7 7 7 8 8 7 7 4 4 4 5 11 11 12 13 17 20 11 10 6 7 6 7 6 5 6 8 11 14 15 16 17 21 20 18 20 22 23 28 29 27 24 25 25 26 32 27 25
6 11 12 10 7 7 7 7 8 8 5 5 2 3 6 10 10 10 12 12 16 17 17 15 10 9 9 8 8 7 11 9 10 16 16 16 19 22 23 21 20 25 27 23 21 21 22 24 26 26 26 20 26 29
10 12 9 8 8 8 9 9 8 8 9 8 8 8 8 5 6 7 9 13 15 17 15 15 18 17 10 10 5 3 6 10 12 12 16 19 22 22 21 22 21 18 15 14 14 12 13 14 17 16 22 26 25 25
12 14 12 6 5 6 7 8 9 8 9 8 8 8 7 6 9 10 13 15 17 19 18 27 11 9 9 6 8 2 6 7 9 15 18 19 20 19 20 17 14 12 11 11 12 11 13 16 18 25 14 11 17 18
3 5 6 6 7 7 6 6 7 8 5 6 4 7 9 10 10 12 16 18 18 19 21 22 18 6 4 7 3 2 4 7 7 10 16 16 17 17 13 10 8 10 11 13 13 14 15 13 13 13 13 18 20 14
6 5 6 8 7 8 7 6 6 5 5 3 2 4 4 6 6 8 12 14 15 15 16 10 7 6 3 4 3 5 8 12 11 9 8 9 12 11 11 9 9 10 10 9 13 13 13 6 4 3 7 12 16 13
8 7 7 6 7 8 7 7 6 3 3 0 2 5 6 7 9 9 13 8 5 6 3 6 3 2 2 2 3 6 10 14 14 13 10 9 8 8 7 6 7 9 11 13 18 10 8 11 13 12 8 12 12 8
7 6 6 6 6 4 3 4 3 3 2 3 4 7 6 10 10 12 12 6 3 4 2 4 7 6 3 5 6 9 11 12 12 11 8 6 7 7 6 6 6 8 12 13 13 18 14 13 12 12 10 9 7 6
7 6 5 4 4 3 4 5 6 5 5 7 8 9 11 10 11 13 11 4 2 3 7 6 5 2 2 4 6 7 8 9 9 6 4 5 5 5 4 5 7 10 10 9 10 10 9 8 8 8 6 5 5 4
5 4 4 5 6 4 4 3 3 4 6 8 13 7 10 10 13 10 5 5 3 4 6 9 4 2 2 4 5 6 6 6 6 4 3 2 3 4 5 6 7 9 7 6 6 6 5 4 3 4 6 3 3 4
5 6 5 4 4 4 3 2 3 5 9 10 9 11 16 12 7 3 7 4 3 3 3 1 2 2 3 2 3 4 4 4 4 3 2 2 3 5 5 4 5 6 7 6 4 5 5 3 3 3 7 9 7 5
7 5 5 7 6 6 6 5 7 9 10 7 14 17 13 3 3 4 6 4 3 2 1 1 2 2 2 1 2 3 3 4 5 3 3 4 4 5 5 3 2 5 5 5 4 4 5 5 5 5 5 5 6 6
8 5 5 6 5 6 7 7 7 6 6 14 14 8 7 2 2 5 6 5 1 2 3 2 2 2 0 1 2 2 1 4 6 7 6 6 6 5 5 4 5 6 6 6 6 5 4 4 4 5 6 6 8 9
6 6 7 7 7 7 6 6 6 7 9 13 10 7 4 1 1 4 5 6 3 2 2 1 1 1 1 1 1 2 3 5 6 8 8 6 7 6 5 5 6 6 7 8 10 10 9 9 9 9 9 9 10 9
8 9 8 8 8 6 5 6 6 8 11 10 8 5 2 2 1 3 5 5 4 3 2 2 2 1 1 2 3 3 4 4 4 2 3 3 3 4 5 5 6 6 7 8 9 9 9 11 10 11 10 9 8 8
9 8 7 6 4 3 3 6 10 11 9 9 7 4 5 3 1 3 4 4 4 3 2 4 4 3 3 4 5 6 6 4 2 1 1 1 2 4 5 5 6 6 7 7 8 8 9 9 8 8 8 8 9 9
8 8 6 6 4 4 7 10 11 10 8 7 3 4 6 3 1 3 4 5 5 6 4 3 5 5 5 7 7 8 6 8 5 2 1 1 1 2 4 5 5 4 4 6 7 8 8 8 7 7 7 8 9 9
6 6 6 5 5 6 6 11 9 7 6 4 5 7 7 5 3 3 4 7 7 7 11 11 12 6 6 8 9 10 10 9 7 5 4 3 3 4 5 5 4 3 2 4 5 5 6 7 7 7 7 8 9 9
Wind_Direction
313 308 288 302 295 288 296 291 275 268 272 287 301 309 307 296 277 296 306 332 358 4 281 248 249 55 72 72 114 285 41 349 165 198 212 257 220 204 204 203 188 208 207 210 214 231 238 235 212 190 219 230 244 255
310 314 303 300 293 283 294 274 266 260 263 271 289 300 303 295 286 313 305 298 275 281 272 282 251 296 287 222 127 30 227 207 203 192 231 244 252 210 210 239 217 217 212 218 204 221 228 198 206 221 229 241 247 258
315 300 295 290 289 280 290 252 259 251 255 267 274 288 297 298 291 318 307 329 302 272 292 248 260 278 280 286 204 129 324 252 232 227 210 227 252 248 228 246 233 235 236 233 241 248 244 250 252 254 249 256 262 272
301 296 293 285 279 272 277 244 252 247 251 261 264 274 289 296 292 309 316 343 326 281 193 248 270 273 266 259 227 207 259 292 283 254 262 272 281 272 249 259 262 243 247 246 247 247 250 246 255 254 247 246 254 264
298 289 283 280 270 265 276 237 243 242 247 258 266 278 284 287 289 286 313 332 18 318 214 260 286 251 226 232 238 239 259 291 292 291 278 273 270 269 275 266 263 278 264 249 266 251 247 249 249 248 244 253 261 277
290 286 282 274 261 259 252 234 226 231 237 250 268 288 296 296 283 250 242 17 338 280 237 193 206 193 232 236 249 257 267 266 272 275 284 293 293 299 264 275 284 268 258 236 235 244 238 246 244 248 258 265 279 288
292 284 277 269 263 265 249 212 217 222 227 241 271 288 300 311 271 221 230 305 354 146 157 151 207 257 253 266 271 269 268 266 269 276 276 293 292 294 280 281 315 268 218 218 231 235 233 230 227 241 254 271 271 284
286 278 276 267 265 245 224 195 213 216 223 237 263 286 300 295 268 242 267 291 147 176 169 171 215 277 252 302 288 285 269 262 268 271 279 282 286 279 275 317 320 287 233 228 223 229 226 226 236 252 261 260 272 284
283 277 267 263 259 233 203 191 207 216 219 236 261 282 303 287 270 264 285 215 185 200 188 184 169 254 281 301 312 306 301 273 267 270 262 272 284 276 320 331 311 263 239 228 225 215 223 236 250 263 272 264 267 273
278 271 251 242 227 210 191 180 211 210 219 237 258 280 303 287 299 293 249 204 212 203 181 334 317 302 306 307 305 297 285 263 275 263 272 264 264 327 341 340 342 245 214 202 208 217 223 241 258 267 270 265 267 265
272 237 232 224 199 186 153 197 206 213 224 242 258 270 280 303 303 239 193 191 204 205 215 286 313 301 311 306 294 276 279 271 258 266 246 266 258 318 344 341 336 20 203 220 241 237 231 254 255 258 253 254 259 268
1 188 154 138 142 167 192 203 207 214 230 249 263 277 290 287 222 199 187 194 202 215 229 269 300 293 294 303 281 261 262 254 244 254 260 250 260 290 318 328 318 286 264 277 281 271 265 253 254 253 249 251 255 265
79 114 124 138 164 204 204 201 209 221 234 255 278 285 259 222 211 192 184 199 226 282 278 291 300 291 301 284 268 260 232 233 260 246 247 260 272 306 316 324 308 286 279 283 283 273 273 266 257 259 259 264 257 256
159 201 204 220 209 206 210 213 216 225 242 269 271 256 249 219 204 178 190 226 258 290 303 297 287 280 292 284 246 261 245 251 240 240 245 297 294 312 313 311 307 297 289 284 282 278 272 275 266 257 253 255 256 262
237 245 225 218 211 211 219 224 228 233 248 268 262 244 239 225 202 201 225 251 278 298 307 305 266 267 268 244 214 240 263 248 229 269 290 283 304 314 312 307 306 307 298 288 281 280 284 280 273 273 263 246 245 244
262 247 219 218 214 221 232 237 241 248 258 265 247 232 239 267 261 251 258 269 290 303 295 288 260 254 235 201 205 204 231 247 291 289 285 297 307 313 314 310 304 302 296 290 288 290 291 285 282 280 264 245 229 228
280 240 209 209 215 237 245 249 255 263 248 239 230 241 266 274 275 262 257 279 301 307 290 263 239 218 223 221 191 199 235 268 275 282 290 302 307 312 316 312 302 299 303 303 299 296 297 296 290 282 272 269 236 218
249 215 189 216 231 242 253 255 260 261 259 268 278 281 279 269 258 278 287 291 303 308 300 255 248 220 213 200 200 172 274 287 281 281 295 304 309 316 313 312 314 316 314 310 311 308 312 323 317 300 287 247 242 246
226 207 198 212 241 258 266 270 255 265 280 288 280 269 276 276 271 274 274 286 304 309 293 295 261 272 257 271 150 238 299 291 301 304 305 309 315 317 320 322 328 332 335 321 317 316 316 323 327 331 311 193 206 194
160 201 222 241 262 261 266 263 270 274 276 290 285 277 283 277 283 282 287 295 297 301 304 297 285 33 113 119 139 246 291 315 326 329 316 314 324 321 324 327 343 350 349 339 336 332 332 323 325 10 85 138 153 143
242 254 261 265 260 259 260 271 279 285 307 312 304 300 344 327 332 326 313 310 309 304 308 306 110 112 120 165 227 290 298 323 317 314 304 306 326 321 334 342 355 350 351 349 349 347 344 325 318 37 192 125 135 139
228 240 252 261 269 278 268 258 264 278 299 237 293 328 333 329 329 324 331 327 310 321 21 84 112 141 214 217 265 286 306 318 325 335 338 330 334 347 5 4 3 6 17 16 8 356 61 76 118 134 149 147 115 103
226 246 257 265 272 261 253 237 239 240 282 295 326 313 316 332 334 329 323 306 283 248 261 286 261 241 266 271 293 310 320 330 338 340 332 334 354 8 15 16 27 48 36 34 42 60 90 95 101 98 92 78 66 47
232 243 257 254 238 242 237 235 242 248 250 277 309 315 312 329 331 328 316 273 212 261 297 300 317 250 282 306 314 326 341 340 336 332 337 10 16 27 34 41 58 41 56 56 53 60 72 95 111 90 79 63 44 29
222 227 230 239 245 248 244 226 247 266 300 316 325 325 331 327 327 323 298 278 262 279 300 299 282 209 251 304 324 354 351 347 334 354 27 37 29 49 60 69 56 53 65 64 70 71 64 52 46 46 52 38 20 8
219 225 221 221 222 211 221 232 294 298 314 324 307 311 312 310 301 321 320 285 297 297 346 265 209 230 273 303 352 357 356 359 15 34 78 94 105 114 111 85 47 39 35 70 62 58 59 73 82 51 13 11 27 35
224 227 225 227 224 219 230 258 278 297 323 313 324 333 327 70 90 3 353 319 291 279 227 190 205 224 246 338 356 357 5 34 53 64 98 105 95 94 113 127 62 25 26 66 63 64 66 54 51 35 17 19 19 19
224 212 217 232 231 237 251 265 281 292 306 317 327 338 12 56 64 355 354 5 85 131 118 130 179 213 258 12 359 9 46 63 60 66 79 83 82 76 71 65 59 58 54 56 67 61 68 64 54 47 51 40 38 47
220 217 219 226 239 249 261 272 281 293 306 313 322 322 335 314 338 353 7 12 20 46 60 87 158 160 88 47 18 6 27 46 55 57 64 70 79 78 77 80 75 68 63 59 60 62 62 63 65 65 63 59 55 47
219 220 223 228 240 255 267 261 268 300 317 325 321 320 243 227 316 6 5 12 19 349 327 317 310 313 9 13 13 2 6 26 51 60 55 71 79 88 91 93 93 91 84 77 68 62 57 57 54 52 53 51 49 47
200 201 210 221 237 221 251 278 293 298 301 311 310 280 216 219 309 347 346 348 339 334 278 260 266 281 308 321 330 339 337 345 5 358 41 60 98 114 114 112 105 98 90 82 71 61 53 51 48 49 46 43 39 46
203 206 206 187 193 250 310 322 304 295 295 300 285 191 184 185 240 345 351 342 314 279 268 261 237 253 281 293 299 308 313 300 317 293 270 290 183 162 142 127 113 100 86 73 62 55 49 49 46 42 39 37 37 37
136 163 183 213 259 292 315 326 315 296 295 275 210 195 189 190 225 276 333 357 343 275 251 250 252 215 262 281 285 290 298 295 289 278 252 235 217 197 182 162 150 133 95 68 56 41 34 31 29 24 24 23 26 30